sat.trackr.live / text

‹ back to catalog

SES-5 (EGNOS/PRN 136)

NORAD 38652 · 2012-036A

PAYLOAD ACTIVE UNKNOWN

§ Identity

Operator
Country
SES
Launch date
2012-07-09
Launch site
TYMSC
Launch vehicle
Mass (kg)
RCS (m²)
37.71

Purposes: comms, nav

External: N2YO · Heavens-Above · Gunter

§ Orbital elements

Epoch: 2026-09-19T16:59:43.677888Z

Period
1,436.08 min
Inclination
0.0456°
Eccentricity
0.0002129
Mean motion
1.00273030 rev/d
Perigee alt
35,777.3 km
Apogee alt
35,795.2 km
Semi-major
42,164.4 km
B*
0.0000e+0
RAAN
351.9296°
Arg perigee
181.1843°
Mean anomaly
85.4181°
Rev number
4,540

§ Raw data

SES-5 (EGNOS/PRN 136)1 38652U 12036A   26262.70814442  .00000030  00000+0  00000+0 0  99952 38652   0.0456 351.9296 0002129 181.1843  85.4181  1.00273030 45402

JSON: /api/v1/satellites/38652 · /tle

For live sub-satellite position, see the globe view (requires WebGL).

§ Visibility from observer

Set your observer location to see the next 7 days of passes ≥ 10°. The values pass through the URL so the page stays shareable.

No JS? Fill the form by hand. The geolocation button needs JavaScript.